Weather in Sosnovka

Russia / Kursk Oblast     51°26′35″N   38°10′29″E
temp.,
°C
wind,
m/s
gust,
m/s
humid.,
%
clouds,
%
prec.,
mm/h
press.,
hPa
HPBL,
m
5 december, sun
sun500:00−3wsw018323 0.0 101645
03:00−3ene118186 0.0 101621
06:00−4e237979 0.0 101691
09:00−3e12795 0.0 101780
12:00−1ese23590 0.0 1016342
15:000ene235820 0.0 1016170
18:00−3e2366100 0.0 101748
21:00−2ese2464100 0.0 101892
6 december, mon
mon600:00−3ese2365100 0.0 101984
03:00−3ese2465100 0.0 102088
06:00−3ese3564100 0.0 1020147
09:00−2ese3863100 0.0 1021289
12:00−1se4761100 0.0 1020356
15:000se367282 0.0 1020356
18:00−1se478779 0.0 1021200
21:00−2se4993100 0.0 1020248
7 december, tue
tue700:00−1se51094100 0.0 1020320
03:000se61295100 1.1 1018373
06:00+1sse71697100 0.5 1017435
09:00+2sse61498100 4.1 1016428
12:00+4s71696100 0.3 1015467
15:00+4s61597100 3.1 1014411
18:00+4sse51295100 1.4 1014231
21:00+3sse51294100 1.4 1014266
8 december, wed
wed800:00+3sse5149489 0.0 1013311
03:00+2sse51395100 0.0 1013286
06:00+2sse41194100 0.0 1012250
09:00+2se4996100 0.0 1013228
12:00+4se51090100 0.0 1012350
15:00+4ese5990100 0.0 1011360
18:00+3ese4994100 0.0 1011270
21:00+3ese3893100 0.0 1012273
9 december, thu
thu900:00+2ese4896100 0.0 1012209
03:00+3se3996100 0.0 1012224
06:00+3ese3595100 0.0 101193
09:00+3ese4897100 1.0 1012204
12:00+4ese3796100 1.3 1012195
15:00+4ese3691100 1.3 1012217
18:00+4se2496100 0.3 1013118
21:00+4se2298100 0.8 101342